sat.trackr.live / text

‹ back to catalog

NIMIQ 4

NORAD 33373 · 2008-044A

PAYLOAD ACTIVE UNKNOWN

§ Identity

Operator
Country
CA
Launch date
2008-09-19
Launch site
TYMSC
Launch vehicle
Mass (kg)
RCS (m²)
10.01

Purposes: comms

External: N2YO · Heavens-Above · Gunter

§ Orbital elements

Epoch: 2026-05-25T03:21:10.817856Z

Period
1,436.10 min
Inclination
0.0068°
Eccentricity
0.0002030
Mean motion
1.00271230 rev/d
Perigee alt
35,778.2 km
Apogee alt
35,795.3 km
Semi-major
42,164.9 km
B*
0.0000e+0
RAAN
36.6945°
Arg perigee
22.3368°
Mean anomaly
152.0190°
Rev number
6,475

§ Raw data

NIMIQ 41 33373U 08044A   26145.13970854 -.00000223  00000+0  00000+0 0  99962 33373   0.0068  36.6945 0002030  22.3368 152.0190  1.00271230 64753

JSON: /api/v1/satellites/33373 · /tle

For live sub-satellite position, see the globe view (requires WebGL).

§ Visibility from observer

Set your observer location to see the next 7 days of passes ≥ 10°. The values pass through the URL so the page stays shareable.

No JS? Fill the form by hand. The geolocation button needs JavaScript.